Simultaneous Nadir Overpasses (SNOs) Predictions

Prediction of SNOs between GOES-17 and AQUA Satellite Orbit:

Table of predicted SNOs for the next 14.0 days since TLE Epoch: 8/17/2024
Index Date Time (GOES-17) GOES-17 Lat,Lon AQUA Lat,Lon Distance(km) Time Diff (sec)
1 08/18/2024 21:14:22 0.01,-104.70 -0.06,-105.13 49.01 80
2 08/20/2024 20:59:52 0.01,-104.69 0.80,-100.93 428.10 80
3 08/21/2024 09:19:51 -0.01,-104.70 0.19,-105.77 121.14 80
4 08/23/2024 08:59:59 -0.01,-104.70 -0.67,-101.56 356.85 80
5 08/23/2024 21:20:05 0.01,-104.69 -0.38,-106.42 196.89 80
6 08/25/2024 21:05:32 0.01,-104.69 0.55,-102.21 281.86 80
7 08/26/2024 09:25:29 -0.02,-104.70 0.50,-107.04 266.56 80
8 08/28/2024 09:05:34 -0.02,-104.69 -0.43,-102.82 212.72 80
9 08/28/2024 21:25:38 0.02,-104.68 -0.61,-107.68 341.02 80
10 08/30/2024 21:11:00 0.02,-104.68 0.27,-103.45 139.71 80
